Location: Kuffner-Sternwarte
(48.2130°N, 16.2960°E)
Time: 14:11:58
(UTC+02:00)

ACS3 Solar Sail - Pass Details

Date: 21 September 2024
Orbit: 961 x 1035 km, 97.4° (Epoch: 08 October)

Event Time Altitude Azimuth Distance (km) Brightness Sun altitude
Exits shadow 19:44:16 - 123° (ESE) 2,980 3.8 -9.1°
Reaches altitude 10° 19:44:42 10° 121° (ESE) 2,838 3.6 -9.2°
Maximum altitude 19:50:12 31° 62° (ENE) 1,733 2.7 -10.1°
Drops below altitude 10° 19:55:42 10° 3° (N) 2,848 4.4 -11.0°
Sets 19:58:29 0° 354° (N) 3,799 5.2 -11.5°
